Regional Weather Roundup
Issued by NWS

Home | Current Version | Previous Version | Graphics & Text | Print | Product List | Glossary On
Versions: 1 2 3 4 5 6 7 8 9 10 11 12 13 14 15 16 17 18 19 20 21 22 23 24 25 26 27 28 29 30 31 32 33 34 35 36 37 38 39 40 41 42 43 44 45 46 47 48 49 50
000
ASUS43 KDMX 190707
RWRIA

WEATHER ROUNDUP FOR IOWA
NATIONAL WEATHER SERVICE DES MOINES IA
200 AM CDT TUE AUG 19 2014

NOTE: "FAIR" INDICATES FEW OR NO CLOUDS BELOW 12,000 FEET WITH NO
SIGNIFICANT WEATHER AND/OR OBSTRUCTIONS TO VISIBILITY.

* - THESE STATIONS ARE NOT NWS STATIONS...THUS NOT UNDER NWS
QUALITY CONTROL.  THEY ALSO DO NOT REPORT WEATHER SUCH
AS PRECIPITATION OR FOG.

IAZ001>003-012>014-020>022-031>034-043>046-190800-
   NORTHWEST IOWA

CITY           SKY/WX    TMP DP  RH WIND       PRES   REMARKS
CARROLL *      MOCLDY    68  66  94 W6        29.78R
CHEROKEE *     CLEAR     64  64 100 SW3       29.78R
DENISON *      PTCLDY    70  68  94 CALM      29.78S
LE MARS *      CLEAR     64  63  94 CALM      29.79R
ORANGE CITY *  CLEAR     66  61  82 CALM      29.79R
SHELDON *      CLEAR     66  64  94 W5        29.76S
SIOUX CITY     CLEAR     66  63  90 SW6       29.80R
SPENCER        CLEAR     63  61  93 W8        29.76S
STORM LAKE *   CLEAR     66  66 100 W8        29.79R
$$

IAZ055>058-069>071-079>083-090>094-190800-
   SOUTHWEST IOWA

CITY           SKY/WX    TMP DP  RH WIND       PRES   REMARKS
ATLANTIC *     CLEAR     68  68 100 CALM      29.78F
AUDUBON *      CLEAR     75  72  88 W6        29.79F
CLARINDA *     CLEAR     68  68 100 CALM      29.78F
COUNCIL BLFS * CLEAR     70  70 100 NW5       29.78F
CRESTON *      CLEAR     70  68  94 W5        29.79S
HARLAN  *      CLEAR     72  70  94 NW10      29.81F
LAMONI         CLEAR     72  70  93 SW9       29.78F
RED OAK *      PTCLDY    68  68 100 CALM      29.78F
SHENANDOAH *   CLEAR     70  68  94 CALM      29.77F
$$

IAZ047>049-059>061-072>074-084-190800-
   CENTRAL IOWA

CITY           SKY/WX    TMP DP  RH WIND       PRES   REMARKS
AMES           MOCLDY    71  69  93 W9        29.75R
ANKENY *       PTCLDY    75  70  83 W5        29.75R
CHARITON *     MOCLDY    72  72 100 SW5       29.77S
DES MOINES     PTCLDY    74  69  85 SW8       29.74S
GRINNELL*      CLEAR     72  70  94 SW8       29.75S FOG
KNOXVILLE *    CLEAR     72  70  94 SW8       29.75R
MARSHALLTOWN   PTCLDY    72  70  93 W9        29.73S
PELLA *        CLEAR     72  72 100 SW7       29.76S
PERRY *          N/A     70  68  94 W7        29.77S
$$

IAZ004>006-015-016-023>025-035-036-190800-
   NORTH CENTRAL IOWA

CITY           SKY/WX    TMP DP  RH WIND       PRES   REMARKS
ALGONA *       CLEAR     68  64  88 W7        29.74S
CLARION *      CLEAR     68  68 100 W6        29.74S
ESTHERVILLE    CLEAR     64  62  93 W6        29.74S
FORT DODGE *   PTCLDY    70  66  88 W3        29.76R
MASON CITY     PTCLDY    68  65  90 W8        29.73F
FOREST CITY *  CLEAR     64  64 100 W3        29.72S
IOWA FALLS *     N/A     70  68  94 W6        29.74F
$$

IAZ007>011-017>019-026>030-037>042-050>054-066-190800-
   NORTHEAST IOWA

CITY           SKY/WX    TMP DP  RH WIND       PRES   REMARKS
CEDAR RAPIDS   PTCLDY    72  70  93 SW10      29.71F
CHARLES CITY * CLEAR     66  64  94 SW3       29.71F
CLINTON *      MOCLDY    72  68  88 SW8       29.77F
DECORAH *      CLEAR     66  64  94 CALM      29.69F
DUBUQUE        CLOUDY    71  69  93 SW10      29.73S
MONTICELLO *   PTCLDY    72  70  94 SW7       29.71F
OELWEIN *      CLOUDY    66  64  94 CALM      29.72F
WATERLOO       CLOUDY    68  65  90 SW3       29.70F
$$

IAZ064-065-067-068-078-190800-
   EAST CENTRAL IOWA

CITY           SKY/WX    TMP DP  RH WIND       PRES   REMARKS
DAVENPORT      PTCLDY    72  68  87 SW10      29.76F
IOWA CITY      PTCLDY    72  69  90 S6        29.74F
MT. PLEASANT * CLEAR     70  68  94 S5        29.77S FOG
MUSCATINE *    MOCLDY    72  70  94 VRB5      29.75F
QUAD CITIES    PTCLDY    72  69  90 SW6       29.75F
$$

IAZ062-063-075>077-085>089-095>099-190800-
   SOUTHEAST IOWA

CITY           SKY/WX    TMP DP  RH WIND       PRES   REMARKS
BURLINGTON     CLEAR     70  69  97 S6        29.77F FOG
FAIRFIELD *    MOCLDY    70  68  94 SW6       29.76F
FORT MADISON * CLEAR     72  72 100 S5        29.79S FOG
KEOKUK *       CLEAR     72  70  94 S6        29.78S FOG
OSKALOOSA *      N/A     68  68 100 SW5       29.77S FOG
CENTERVILLE *  CLEAR     70  70 100 SW7       29.80R
OTTUMWA        CLEAR     71  69  93 SW6       29.76S
WASHINGTON *   CLEAR     70  70 100 SW8       29.75F
$$

ABBREVIATIONS USED IN REMARKS
   TC - TEMPERATURES IN CELSIUS
  WCI - WIND CHILL INDEX
   HX - HEAT INDEX
  VSB - VISIBILITY
$$




USA.gov is the U.S. government's official web portal to all federal, state and local government web resources and services.